This is the latest recevied weather packets stored in our database for station/object BARLOW-WX. If no packets are shown the sender has not sent any weather packets the latest 10 day(s).
| Time | Temp. | Humidity | Pressure | Rain* | Wind** | Luminosity | Snow |
|---|---|---|---|---|---|---|---|
| 1777744914 | 7.78° C | 46% | 990.9 hPa | 0 mm | - | - | - |
| 1777743979 | 7.78° C | 45% | 991.5 hPa | 0 mm | - | - | - |
| 1777743096 | 7.78° C | 43% | 991.4 hPa | 0 mm | - | - | - |
| 1777742179 | 7.78° C | 43% | 991.4 hPa | 0 mm | - | - | - |
| 1777741303 | 7.78° C | 43% | 991.4 hPa | 0 mm | - | - | - |
| 1777740379 | 7.78° C | 45% | 990.9 hPa | 0 mm | - | - | - |
| 1777739499 | 7.22° C | 44% | 990.5 hPa | 0 mm | - | - | - |
| 1777738579 | 7.22° C | 44% | 990.5 hPa | 0 mm | - | - | - |
| 1777737709 | 6.67° C | 44% | 990.5 hPa | 0 mm | - | - | - |
| 1777736779 | 6.67° C | 47% | 990.4 hPa | 0 mm | - | - | - |
| 1777735895 | 6.11° C | 51% | 990.6 hPa | 0 mm | - | - | - |
| 1777734979 | 6.11° C | 51% | 990.6 hPa | 0 mm | - | - | - |
| 1777734112 | 5.56° C | 51% | 990.6 hPa | 0 mm | - | - | - |
| 1777733179 | 5.56° C | 56% | 990.9 hPa | 0 mm | - | - | - |
| 1777732294 | 5° C | 58% | 991.4 hPa | 0 mm | - | - | - |
| 1777731380 | 4.44° C | 58% | 991.3 hPa | 0 mm | - | - | - |
| 1777730521 | 4.44° C | 58% | 991.3 hPa | 0 mm | - | - | - |
| 1777729580 | 3.89° C | 73% | 991 hPa | 0 mm | - | - | - |
| 1777728698 | 3.89° C | 73% | 991 hPa | 0 mm | - | - | - |
| 1777727780 | 3.33° C | 73% | 991 hPa | 0 mm | - | - | - |
| 1777726907 | 2.78° C | 73% | 991 hPa | 0 mm | - | - | - |
| 1777725978 | 2.22° C | 81% | 990.1 hPa | 0 mm | - | - | - |
| 1777725097 | 1.67° C | 78% | 991 hPa | 0 mm | - | - | - |
| 1777724179 | 1.67° C | 78% | 991 hPa | 0 mm | - | - | - |
| 1777723323 | 1.11° C | 78% | 991 hPa | 0 mm | - | - | - |
* Rain latest hour (hover to see other rain measurements)
** Current wind speed in m/s (hover to see current wind gust speed)